Regional Weather Roundup
Issued by NWS

Home | Current Version | Previous Version | Text Only | Print | Product List | Glossary Off
Versions: 1 2 3 4 5 6 7 8 9 10 11 12 13 14 15 16 17 18 19 20 21 22 23 24 25 26 27 28 29 30 31 32 33 34 35 36 37 38 39 40 41 42 43 44 45 46 47 48 49 50

000
ASUS45 KCYS 230310
RWRWY

WYOMING REGIONAL WEATHER ROUNDUP
NATIONAL WEATHER SERVICE CHEYENNE WY
900 PM MDT FRI MAY 22 2015

NOTE:  "FAIR" INDICATES FEW OR NO CLOUDS BELOW 12,000 FEET
WITH NO SIGNIFICANT WEATHER AND/OR OBSTRUCTIONS TO VISIBILITY.

WYZ001-230400-
YELLOWSTONE NATIONAL PARK

CITY           SKY/WX    TMP DP  RH WIND       PRES   REMARKS
LK YELLOWSTONE   N/A     42  40  92 NW3       30.03R
W YELLOWSTONE  NOT AVBL

$$
WYZ002>013-054>058-071-098>099-230400-
NORTHERN WYOMING

CITY           SKY/WX    TMP DP  RH WIND       PRES   REMARKS
JACKSON        MOCLDY    45  45 100 S7        29.97R
CODY           CLOUDY    48  45  87 CALM      29.96S
GREYBULL       CLOUDY    58  51  78 W9        29.91R
WORLAND        CLOUDY    55  50  83 CALM      29.91R
SHERIDAN       CLOUDY    53  46  77 SE20G28   29.94S
BUFFALO        CLOUDY    48  46  93 S12       30.01S
GILLETTE       FAIR      48  41  76 SE13      30.01S
HULETT         MOCLDY    52  43  71 S6        30.04R
NEWCASTLE      CLOUDY    46  39  76 SE10      30.07S

$$
WYZ014>020-022>026-101>103-230400-
CENTRAL WYOMING

CITY           SKY/WX    TMP DP  RH WIND       PRES   REMARKS
BIG PINEY      LGT RAIN  44  41  89 S3        29.99R
PINEDALE       CLOUDY    43  41  93 E5        30.00S
DUBOIS         CLOUDY    45  37  76 SE7       29.98R
LANDER         RAIN      48  46  93 NW7       29.92R FOG
RIVERTON       LGT RAIN  50  47  89 NE6       29.94R
CASPER         LGT RAIN  47  44  90 E14       29.96R
DOUGLAS        CLOUDY    47  43  86 SE17      30.02R

$$
WYZ021-027>030-104>119-230400-
SOUTHERN WYOMING

CITY           SKY/WX    TMP DP  RH WIND       PRES   REMARKS
EVANSTON       LGT RAIN  41  39  93 S6        30.01R
KEMMERER       DRIZZLE   41  39  93 SW6       30.00R
FORT BRIDGER   DRIZZLE   43  43 100 W3        30.03S
ROCK SPRINGS   MOCLDY    43  40  89 W9        29.98S
DIXON          FAIR      46  40  79 E5        30.01R
RAWLINS        FAIR      44  38  79 E6        29.99R
SARATOGA       FAIR      43  37  81 SE3       30.00F
LARAMIE        FAIR      40  38  93 SE12      30.01F WCI  33
CHEYENNE       CLOUDY    46  43  89 S7        30.05R
TORRINGTON     LGT RAIN  46  45  96 SE15      30.03S
PINE BLUFFS    CLOUDY    45  43  93 E10       30.05R FOG

$$


USA.gov is the U.S. government's official web portal to all federal, state and local government web resources and services.